Weather History for KMLT - January, 2013

Change the Weather History Date:

Monday, January 7, 2013

  Actual Average Record
Temperature  
Mean Temperature 3 °F 15 °F  
Max Temperature 14 °F 24 °F 51 °F (1946)
Min Temperature -8 °F 5 °F -24 °F (1945)
Degree Days  
Heating Degree Days 62 50  
Month to date heating degree days 380 346  
Since 1 July heating degree days 3254 3511  
Cooling Degree Days 0 0  
Month to date cooling degree days 0 0  
Year to date cooling degree days 0 0  
Moisture  
Dew Point -3 °F    
Average Humidity 65    
Maximum Humidity 84    
Minimum Humidity 46    
Precipitation  
Precipitation T in 0.12 in 0.77 in (1938)
Month to date precipitation T 0.91  
Year to date precipitation T 0.91  
Sea Level Pressure  
Sea Level Pressure 30.30 in    
Wind  
Wind Speed 5 mph (North)    
Max Wind Speed 14 mph    
Max Gust Speed 20 mph    
Visibility 9 miles    
Events Snow    
T = Trace of Precipitation, MM = Missing Value Source: NWS Daily Summary

Daily Weather History Graph

Daily Weather History Graph

Search for Another Location

Airport or City:

Trip Planner

Search our weather history database for the weather conditions in past years. The results will help you decide how hot, cold, wet, or windy it might be!

Date:

Astronomy

Jan. 07, 2013 Rise Set
Actual Time 7:14 AM EST 4:07 PM EST
Civil Twilight 6:40 AM EST 4:41 PM EST
Nautical Twilight 6:03 AM EST 5:19 PM EST
Astronomical Twilight 5:27 AM EST 5:54 PM EST
Moon 2:30 AM EST (1/7) 12:18 PM EST (1/7)
Length of Visible Light 10h 00m
Length of Day
8h 53m
Waning Crescent, 23% of the Moon is Illuminated
Jan 7
Waning Crescent
Jan 11
New
Jan 18
First Quarter
Jan 26
Full
Feb 3
Last Quarter

Hourly Weather History & Observations

Time (EST) Temp. Windchill Dew Point Humidity Pressure Visibility Wind Dir Wind Speed Gust Speed Precip Events Conditions
12:53 AM 12.9 °F 2.6 °F 8.1 °F 81% 30.07 in 5.0 mi NNE 6.9 mph - 0.00 in Snow Light Snow
1:53 AM 12.0 °F -0.4 °F 5.0 °F 73% 30.09 in 10.0 mi North 9.2 mph - 0.00 in   Overcast
2:53 AM 10.9 °F -3.4 °F 3.0 °F 70% 30.12 in 8.0 mi North 11.5 mph 17.3 mph 0.00 in Snow Light Snow
3:53 AM 10.0 °F -1.9 °F 1.9 °F 70% 30.14 in 5.0 mi NNE 8.1 mph - 0.00 in Snow Light Snow
4:53 AM 9.0 °F -4.2 °F 1.0 °F 70% 30.17 in 10.0 mi NE 9.2 mph - 0.00 in   Overcast
5:53 AM 8.1 °F -6.2 °F -0.0 °F 70% 30.21 in 10.0 mi NNE 10.4 mph - 0.00 in   Overcast
6:53 AM 7.0 °F -4.5 °F -2.0 °F 67% 30.24 in 10.0 mi NNE 6.9 mph - 0.00 in   Overcast
7:53 AM 5.0 °F -2.1 °F -5.1 °F 63% 30.28 in 10.0 mi NNE 3.5 mph - N/A   Scattered Clouds
8:53 AM 6.1 °F -2.8 °F -4.0 °F 63% 30.32 in 10.0 mi North 4.6 mph - N/A   Clear
9:53 AM 9.0 °F -0.9 °F -4.0 °F 56% 30.35 in 10.0 mi North 5.8 mph - N/A   Clear
10:53 AM 10.0 °F 0.4 °F -2.9 °F 56% 30.34 in 10.0 mi North 5.8 mph - N/A   Clear
11:53 AM 12.0 °F 4.1 °F -2.0 °F 53% 30.34 in 10.0 mi NNW 4.6 mph - N/A   Clear
12:53 PM 14.0 °F 6.5 °F -2.9 °F 47% 30.34 in 10.0 mi WNW 4.6 mph - N/A   Clear
2:53 PM 12.9 °F 3.8 °F -6.0 °F 43% 30.38 in 10.0 mi WNW 5.8 mph - N/A   Clear
3:53 PM 10.9 °F 2.9 °F -6.0 °F 47% 30.40 in 10.0 mi WNW 4.6 mph - N/A   Clear
4:53 PM 5.0 °F - -4.0 °F 66% 30.40 in 10.0 mi Calm Calm - N/A   Clear
6:53 PM -0.0 °F - -6.0 °F 76% 30.42 in 10.0 mi Calm Calm - N/A   Clear
7:53 PM -0.9 °F - -5.1 °F 83% 30.40 in 4.0 mi Calm Calm - N/A   Clear
8:53 PM -2.9 °F - -7.1 °F 82% 30.40 in 10.0 mi Calm Calm - N/A   Clear
9:53 PM -5.1 °F - -9.9 °F 80% 30.40 in 10.0 mi Calm Calm - N/A   Clear
10:53 PM -8.0 °F - -13.0 °F 79% 30.38 in 8.0 mi Calm Calm - N/A   Clear
11:53 PM -8.0 °F - -11.9 °F 83% 30.35 in 6.0 mi Calm Calm - N/A   Clear